EW5797 Weather Reports


time (UTC)temp
F
wind
direction
speed
knots
gust
knots
rain 1hr
in
rain 24hr
in
rain mn
in
humidity
%
barometer
mb
20260508194703 72 124 2.6 5.2 0.00 0.00 0.00 36 1015.1
20260508194204 72 257 2.6 8.7 0.00 0.00 0.00 38 1015.1
20260508193703 71 212 2.6 6.1 0.00 0.00 0.00 36 1015.2
20260508193203 71 260 0.9 2.6 0.00 0.00 0.00 38 1015.2
20260508192703 70 20 1.7 4.3 0.00 0.00 0.00 38 1015.3
20260508192203 70 28 1.7 4.3 0.00 0.00 0.00 36 1015.1
20260508191703 70 279 1.7 5.2 0.00 0.00 0.00 38 1015.4
20260508191203 70 269 2.6 6.1 0.00 0.00 0.00 39 1015.4
20260508190703 69 279 2.6 6.1 0.00 0.00 0.00 41 1015.6
20260508190202 69 38 2.6 5.2 0.00 0.00 0.00 38 1015.7
20260508185703 70 8 0.9 2.6 0.00 0.00 0.00 39 1015.8
20260508185203 70 90 1.7 2.6 0.00 0.00 0.00 36 1016.0
20260508184203 70 268 2.6 7.0 0.00 0.00 0.00 37 1016.1
20260508183703 70 46 1.7 5.2 0.00 0.00 0.00 42 1016.1
20260508182703 69 270 1.7 7.0 0.00 0.00 0.00 40 1016.2
20260508182203 68 276 1.7 7.0 0.00 0.00 0.00 39 1016.4
20260508181703 68 308 1.7 5.2 0.00 0.00 0.00 43 1016.4
20260508181203 68 29 1.7 2.6 0.00 0.00 0.00 37 1016.4
20260508180703 68 319 2.6 5.2 0.00 0.00 0.00 40 1016.4
20260508180203 69 358 1.7 7.0 0.00 0.00 0.00 41 1016.4
20260508175703 69 12 1.7 6.1 0.00 0.00 0.00 41 1016.6
20260508174703 68 229 1.7 4.3 0.00 0.00 0.00 44 1016.7
20260508174203 67 14 0.9 2.6 0.00 0.00 0.00 40 1016.8
20260508173703 67 295 1.7 2.6 0.00 0.00 0.00 41 1017.0
20260508172203 65 342 0.9 2.6 0.00 0.00 0.00 46 1017.3
20260508171702 65 291 1.7 5.2 0.00 0.00 0.00 42 1017.4
20260508171203 65 24 2.6 5.2 0.00 0.00 0.00 43 1017.4
20260508170703 65 348 1.7 6.1 0.00 0.00 0.00 44 1017.5
20260508165702 64 43 2.6 7.0 0.00 0.00 0.00 46 1017.7
20260508165203 64 11 2.6 5.2 0.00 0.00 0.00 45 1017.8
20260508164203 63 26 1.7 6.1 0.00 0.00 0.00 47 1018.0
20260508163703 63 100 1.7 4.3 0.00 0.00 0.00 46 1018.1
20260508163204 63 327 2.6 7.0 0.00 0.00 0.00 48 1018.1
20260508162703 63 40 1.7 4.3 0.00 0.00 0.00 54 1018.1
20260508161703 62 49 2.6 5.2 0.00 0.00 0.00 56 1018.4
20260508160703 61 68 1.7 5.2 0.00 0.00 0.00 55 1018.5
20260508160203 61 324 1.7 4.3 0.00 0.00 0.00 56 1018.6
20260508155703 61 327 1.7 7.0 0.00 0.00 0.00 58 1018.7
20260508155203 61 33 1.7 4.3 0.00 0.00 0.00 62 1018.7
20260508154703 60 33 1.7 2.6 0.00 0.00 0.00 59 1018.8
20260508154203 60 4 1.7 4.3 0.00 0.00 0.00 61 1018.8
20260508153703 60 13 1.7 4.3 0.00 0.00 0.00 62 1018.9
20260508153203 60 47 1.7 4.3 0.00 0.00 0.00 62 1018.9
20260508152703 60 22 2.6 4.3 0.00 0.00 0.00 64 1019.0
20260508152203 60 354 2.6 6.1 0.00 0.00 0.00 67 1019.0
20260508151703 60 0 2.6 7.0 0.00 0.00 0.00 66 1019.1
20260508151203 60 7 2.6 7.0 0.00 0.00 0.00 66 1019.1
20260508145703 59 35 1.7 5.2 0.00 0.00 0.00 66 1019.2
20260508145203 58 282 1.7 2.6 0.00 0.00 0.00 71 1019.3
20260508144703 57 270 0.9 2.6 0.00 0.00 0.00 77 1019.2
20260508144203 56 160 0.9 4.3 0.00 0.00 0.00 79 1019.2
20260508143703 55 295 0.9 2.6 0.00 0.01 0.00 82 1019.2
20260508142703 54 268 0.9 1.7 0.00 0.01 0.00 90 1019.2
20260508142203 53 130 1.7 2.6 0.00 0.01 0.00 92 1019.3
20260508141703 52 267 0.9 2.6 0.00 0.01 0.00 93 1019.3
20260508140703 51 206 0.9 1.7 0.00 0.01 0.00 94 1019.4
20260508140203 51 349 0.9 2.6 0.00 0.01 0.00 94 1019.5
20260508135703 50 306 0.9 4.3 0.00 0.01 0.00 94 1019.4
20260508135203 49 46 0.9 4.3 0.00 0.01 0.00 94 1019.5
20260508134204 48 194 0.9 2.6 0.00 0.01 0.00 94 1019.5
20260508133703 48 53 0.9 1.7 0.00 0.01 0.00 94 1019.5
20260508133203 47 45 0.9 2.6 0.00 0.01 0.00 94 1019.5
20260508132703 47 347 1.7 2.6 0.00 0.01 0.00 94 1019.5
20260508132203 47 348 1.7 2.6 0.00 0.01 0.00 94 1019.4
20260508130703 47 266 1.7 2.6 0.00 0.01 0.00 94 1019.3
20260508130203 47 187 0.9 2.6 0.00 0.01 0.00 94 1019.3
20260508125204 47 45 0.9 2.6 0.00 0.01 0.00 94 1019.2
20260508124703 47 6 0.9 1.7 0.00 0.01 0.00 94 1019.1
20260508123203 46 8 0.9 2.6 0.00 0.01 0.00 94 1019.0
20260508122704 46 7 0.9 1.7 0.00 0.01 0.00 94 1019.0
20260508122204 46 325 0.9 1.7 0.00 0.01 0.00 94 1019.0
20260508121203 46 172 0.9 1.7 0.00 0.01 0.00 94 1018.8
20260508120204 46 327 0.9 1.7 0.00 0.01 0.00 94 1018.8
20260508115703 46 2 0.9 1.7 0.00 0.01 0.00 94 1018.7
20260508115203 46 195 0.9 1.7 0.00 0.01 0.00 94 1018.6
20260508114203 46 263 0.9 1.7 0.00 0.01 0.00 94 1018.6
20260508113703 46 238 0.9 2.6 0.00 0.01 0.00 94 1018.4
20260508113202 46 302 0.9 1.7 0.00 0.01 0.00 94 1018.4
20260508112703 46 40 0.9 1.7 0.00 0.01 0.00 94 1018.3
20260508112203 46 74 0.9 1.7 0.00 0.02 0.00 94 1018.2
20260508111203 46 171 0.9 2.6 0.00 0.02 0.00 94 1018.1
20260508110703 46 151 0.9 1.7 0.00 0.02 0.00 94 1018.0
20260508110203 46 185 0.9 1.7 0.00 0.02 0.00 94 1017.9
20260508105703 47 178 0.9 2.6 0.00 0.02 0.00 94 1017.9
20260508105203 47 145 0.9 0.9 0.00 0.02 0.00 94 1017.8
20260508103703 47 145 0.0 4.3 0.00 0.02 0.00 94 1017.6
20260508103203 47 173 0.9 2.6 0.00 0.03 0.00 94 1017.5
20260508102703 47 219 0.9 2.6 0.00 0.03 0.00 94 1017.5
20260508102203 47 184 0.9 1.7 0.00 0.03 0.00 94 1017.4
20260508101703 47 124 0.0 1.7 0.00 0.03 0.00 94 1017.4
20260508101204 47 183 0.9 2.6 0.00 0.03 0.00 94 1017.3
20260508100203 47 58 1.7 2.6 0.00 0.03 0.00 94 1017.3
20260508095703 47 180 0.0 1.7 0.00 0.03 0.00 94 1017.2
20260508095204 47 41 0.9 2.6 0.00 0.03 0.00 94 1017.3
20260508094703 47 46 0.0 1.7 0.00 0.03 0.00 94 1017.2
20260508094203 47 128 0.0 0.9 0.00 0.03 0.00 94 1017.3
20260508093703 47 292 0.0 2.6 0.00 0.03 0.00 94 1017.2
20260508092203 47 323 0.9 1.7 0.00 0.03 0.00 94 1017.4
20260508091203 47 326 0.0 1.7 0.00 0.03 0.00 94 1017.2
20260508090703 47 340 0.9 1.7 0.00 0.03 0.00 94 1017.2
20260508090203 47 147 0.0 1.7 0.00 0.03 0.00 94 1017.1
20260508085203 47 266 0.9 0.9 0.00 0.03 0.00 94 1017.0
20260508084703 47 309 0.0 1.7 0.00 0.03 0.00 94 1017.0
20260508084204 47 281 0.9 1.7 0.00 0.03 0.00 94 1017.1
20260508083703 47 303 0.0 0.9 0.00 0.03 0.00 94 1017.1
20260508083203 47 304 0.0 0.9 0.00 0.03 0.00 94 1017.0
20260508082703 47 305 0.9 1.7 0.00 0.03 0.00 93 1017.0
20260508081703 47 254 0.0 0.9 0.00 0.03 0.00 93 1017.1
20260508081203 47 264 0.9 1.7 0.00 0.03 0.00 93 1017.1
20260508080704 47 243 0.0 0.9 0.00 0.03 0.00 93 1017.0
20260508080204 47 274 0.9 1.7 0.00 0.03 0.00 93 1016.9
20260508075703 47 310 0.9 1.7 0.00 0.03 0.00 93 1016.9
20260508075203 47 286 0.9 1.7 0.00 0.03 0.00 94 1017.0
20260508074703 47 291 0.0 0.9 0.00 0.03 0.00 94 1017.0
20260508074203 47 51 0.0 0.9 0.00 0.04 0.00 93 1016.9
20260508073703 47 313 0.0 0.9 0.00 0.04 0.00 93 1017.1
20260508073203 47 41 0.0 0.9 0.00 0.04 0.00 93 1017.1
20260508072704 47 10 0.0 0.9 0.00 0.04 0.00 93 1017.0
20260508071704 48 301 0.0 0.9 0.00 0.05 0.00 94 1017.0
20260508071203 48 290 0.0 0.9 0.00 0.06 0.00 94 1016.9
20260508070703 48 324 0.0 0.9 0.00 0.06 0.00 94 1016.9
20260508065703 47 40 0.0 0.9 0.00 0.06 0.00 93 1017.0
20260508065203 47 144 0.9 0.9 0.00 0.06 0.00 93 1017.1
20260508064704 47 142 0.9 1.7 0.00 0.06 0.00 93 1017.2
20260508064203 47 166 0.9 1.7 0.00 0.06 0.00 93 1017.2
20260508063703 47 185 0.9 1.7 0.00 0.06 0.00 93 1017.2
20260508063203 46 105 0.9 1.7 0.00 0.06 0.00 93 1017.1
20260508062203 46 212 0.0 0.9 0.00 0.06 0.00 92 1017.1
20260508061203 46 295 0.9 1.7 0.00 0.06 0.00 92 1017.0
20260508060703 46 273 0.9 0.9 0.00 0.06 0.00 92 1017.2
20260508060203 46 247 0.9 1.7 0.00 0.06 0.00 92 1017.3
20260508055703 46 262 0.9 0.9 0.00 0.06 0.00 92 1017.1
20260508055203 46 217 0.0 0.9 0.00 0.06 0.00 92 1017.0
20260508054703 46 194 0.0 0.9 0.00 0.06 0.00 91 1017.2
20260508054204 46 345 0.0 0.9 0.00 0.06 0.00 91 1017.1
20260508053703 46 354 0.0 0.9 0.00 0.06 0.00 91 1017.1
20260508053203 46 323 0.0 0.9 0.00 0.06 0.00 91 1017.2
20260508052204 46 203 0.9 0.9 0.00 0.06 0.00 91 1017.2
20260508051704 46 165 0.9 0.9 0.00 0.06 0.00 90 1017.1
20260508051203 46 170 0.0 0.9 0.00 0.06 0.00 90 1017.1
20260508050703 47 311 0.0 0.9 0.00 0.06 0.00 91 1017.0
20260508050203 47 300 0.0 0.9 0.00 0.06 0.00 91 1017.1
20260508045704 47 290 0.0 0.9 0.00 0.06 0.00 91 1016.9
20260508045204 47 283 0.0 0.9 0.00 0.06 0.00 91 1016.9
20260508044703 47 51 0.0 0.9 0.00 0.06 0.00 91 1016.9
20260508043704 47 180 0.9 2.6 0.00 0.06 0.00 91 1016.7
20260508043204 47 175 0.9 1.7 0.00 0.06 0.00 90 1016.7
20260508042704 48 112 0.0 0.9 0.00 0.06 0.00 90 1016.6
20260508042203 48 323 0.0 0.9 0.00 0.06 0.00 90 1016.6
20260508040704 48 327 0.0 0.9 0.00 0.06 0.00 91 1016.4
20260508035703 48 316 0.0 0.9 0.00 0.06 0.06 91 1016.4
20260508035204 48 356 0.0 0.9 0.00 0.06 0.06 90 1016.4
20260508034703 48 306 0.0 0.9 0.00 0.06 0.06 90 1016.2
20260508034203 48 20 0.0 0.9 0.00 0.06 0.06 90 1016.3
20260508033704 48 258 0.0 0.9 0.00 0.06 0.06 90 1016.3
20260508031703 48 274 0.0 0.9 0.00 0.06 0.06 89 1016.4
20260508031203 48 244 0.9 1.7 0.00 0.06 0.06 88 1016.4
20260508030203 49 329 0.0 0.9 0.00 0.06 0.06 88 1016.3
20260508025703 49 329 0.0 0.9 0.00 0.06 0.06 88 1016.2
20260508025203 49 15 0.0 0.9 0.00 0.06 0.06 88 1016.1
20260508024704 49 303 0.0 0.9 0.00 0.06 0.06 88 1015.9
20260508024203 49 309 0.0 0.9 0.00 0.06 0.06 88 1015.8
20260508023703 49 296 0.9 1.7 0.00 0.06 0.06 88 1015.7
20260508023203 50 283 0.9 1.7 0.00 0.06 0.06 87 1015.7
20260508022704 50 254 0.9 1.7 0.00 0.06 0.06 87 1015.7
20260508021704 50 311 0.9 0.9 0.00 0.06 0.06 86 1015.7
20260508021204 50 311 0.9 0.9 0.00 0.06 0.06 85 1015.7
20260508020703 51 351 0.0 0.9 0.00 0.06 0.06 85 1015.6
20260508020204 51 302 0.0 0.9 0.00 0.06 0.06 85 1015.6
20260508015703 51 348 0.0 0.9 0.00 0.07 0.06 85 1015.4
20260508015203 51 331 0.0 0.9 0.00 0.07 0.06 84 1015.2
20260508014704 52 325 0.0 0.9 0.00 0.07 0.06 84 1015.2
20260508014204 52 46 0.0 0.9 0.00 0.08 0.06 84 1015.2
20260508013703 52 321 0.0 0.9 0.00 0.10 0.06 84 1015.1
20260508013203 52 333 0.0 0.9 0.00 0.10 0.06 84 1015.0
20260508012204 53 65 0.0 1.7 0.00 0.11 0.06 83 1014.7
20260508011704 53 285 0.0 1.7 0.00 0.11 0.06 83 1014.8
20260508011204 54 305 0.0 1.7 0.00 0.11 0.06 82 1014.8
20260508005703 54 320 0.0 0.9 0.00 0.11 0.06 81 1014.5
20260508005203 55 331 0.9 0.9 0.00 0.12 0.06 80 1014.5
20260508004703 55 277 0.0 1.7 0.00 0.12 0.06 80 1014.4
20260508004204 56 194 0.0 0.9 0.00 0.13 0.06 79 1014.4
20260508003703 56 134 0.0 0.9 0.00 0.14 0.06 78 1014.3
20260508002704 57 217 0.9 1.7 0.00 0.16 0.06 77 1014.3
20260508002204 57 309 0.0 0.9 0.00 0.16 0.06 76 1014.3
20260508001703 58 259 0.9 1.7 0.00 0.16 0.06 75 1014.3
20260508001203 58 203 0.9 1.7 0.00 0.16 0.06 75 1014.2
20260508000703 59 242 0.9 1.7 0.00 0.16 0.06 74 1014.3
20260508000204 59 233 0.0 1.7 0.00 0.16 0.06 74 1014.3
20260507234703 60 246 0.9 1.7 0.00 0.16 0.06 73 1014.3
20260507234204 60 215 0.9 2.6 0.00 0.16 0.06 72 1014.3
20260507233703 61 251 0.9 2.6 0.00 0.16 0.06 72 1014.3
20260507232204 61 207 1.7 2.6 0.00 0.16 0.06 71 1014.4
20260507231704 61 281 0.9 2.6 0.00 0.16 0.06 71 1014.4
20260507231204 61 208 1.7 2.6 0.00 0.16 0.06 70 1014.4
20260507230203 62 213 0.9 4.3 0.00 0.16 0.06 70 1014.4
20260507225703 62 198 1.7 5.2 0.00 0.16 0.06 72 1014.4
20260507225203 61 215 0.9 5.2 0.00 0.16 0.06 72 1014.5
20260507224704 61 166 1.7 4.3 0.00 0.16 0.06 73 1014.4
20260507224204 61 272 0.9 2.6 0.00 0.16 0.06 73 1014.4
20260507223704 61 279 2.6 6.1 0.00 0.16 0.06 75 1014.5
20260507223203 60 266 1.7 2.6 0.00 0.16 0.06 74 1014.4
20260507222704 60 204 1.7 4.3 0.00 0.16 0.06 75 1014.4
20260507222203 60 166 1.7 2.6 0.00 0.16 0.06 74 1014.3
20260507221703 60 267 1.7 2.6 0.00 0.16 0.06 75 1014.3
20260507221203 60 301 0.9 2.6 0.00 0.16 0.06 73 1014.2
20260507220704 60 191 0.9 2.6 0.00 0.16 0.06 74 1014.2
20260507220203 60 356 0.9 2.6 0.00 0.16 0.06 74 1014.1
20260507215703 60 279 1.7 2.6 0.00 0.16 0.06 74 1014.2
20260507215204 60 211 1.7 2.6 0.00 0.16 0.06 75 1014.1
20260507214704 60 196 0.9 2.6 0.00 0.16 0.06 74 1014.1
20260507213203 59 175 1.7 4.3 0.00 0.16 0.06 77 1013.9
20260507212704 59 148 1.7 2.6 0.00 0.16 0.06 79 1013.8
20260507212203 58 162 0.9 4.3 0.00 0.16 0.06 79 1013.8
20260507211704 58 235 1.7 4.3 0.00 0.16 0.06 79 1014.0
20260507210703 57 201 0.9 2.6 0.00 0.16 0.06 82 1013.9
20260507210204 56 241 1.7 2.6 0.00 0.16 0.06 82 1013.8
20260507205703 56 277 1.7 2.6 0.00 0.16 0.06 84 1013.8
20260507204704 55 179 0.9 1.7 0.00 0.16 0.06 83 1013.7
20260507204204 55 190 0.9 2.6 0.00 0.16 0.06 84 1013.7
20260507203203 55 177 0.9 2.6 0.00 0.16 0.06 84 1013.9
20260507202704 55 285 0.0 1.7 0.00 0.16 0.06 83 1013.9
20260507202204 55 222 0.9 2.6 0.00 0.16 0.06 82 1014.1
20260507201704 55 311 0.9 2.6 0.00 0.16 0.06 82 1014.1
20260507201203 55 273 0.9 2.6 0.00 0.16 0.06 83 1014.0
20260507200703 55 285 1.7 2.6 0.00 0.16 0.06 83 1014.1
20260507200203 54 221 0.0 1.7 0.00 0.16 0.06 82 1013.9
20260507195704 54 256 0.9 2.6 0.00 0.16 0.06 83 1014.0